Regional Weather Roundup
Issued by NWS

Home | Current Version | Previous Version | Graphics & Text | Print | Product List | Glossary On
Versions: 1 2 3 4 5 6 7 8 9 10 11 12 13 14 15 16 17 18 19 20 21 22 23 24 25 26 27 28 29 30 31 32 33 34 35 36 37 38 39 40 41 42 43 44 45 46 47 48 49 50
895
ASUS43 KLMK 230602
RWRKY
KENTUCKY REGIONAL WEATHER ROUNDUP
NATIONAL WEATHER SERVICE LOUISVILLE KY
100 AM EST THU FEB 23 2017

NOTE "FAIR" INDICATES FEW OR NO CLOUDS BELOW 12,000 FEET
WITH NO SIGNIFICANT WEATHER AND/OR OBSTRUCTIONS TO VISIBILITY.

KYZ001>023-026-027-061>063-070>075-230700-
WESTERN AND SOUTH CENTRAL KENTUCKY

CITY           SKY/WX    TMP DP  RH WIND       PRES   REMARKS
PADUCAH        PTCLDY    60  54  80 SW5       29.78S
HENDERSON      PTCLDY    57  52  82 S6        29.77S
OWENSBORO      PTCLDY    58  54  86 S7        29.79S
HOPKINSVILLE   PTCLDY    60  56  89 S7        29.80F
BOWLING GREEN  CLEAR     58  55  90 S5        29.83F
GLASGOW        NOT AVBL
$$

KYZ024-025-028>034-038-045-046-053-230700-
NORTH CENTRAL KENTUCKY

CITY           SKY/WX    TMP DP  RH WIND       PRES   REMARKS
LOUISVILLE/SDF PTCLDY    65  55  70 S9        29.79F
LOUISVILLE/LOU PTCLDY    64  55  72 S6        29.79F
FORT KNOX      CLEAR     59  56  92 S7        29.78F
$$

KYZ035>037-039>044-047>052-055>060-089>105-230700-
NORTHEAST KENTUCKY

CITY           SKY/WX    TMP DP  RH WIND       PRES   REMARKS
LEXINGTON      PTCLDY    57  53  86 S8        29.84S
COVINGTON      PTCLDY    58  55  90 S8        29.78F
FRANKFORT      CLOUDY    62  54  74 S9        29.81S
$$

KYZ054-064>069-076>088-106>120-230700-
SOUTHEAST KENTUCKY

CITY           SKY/WX    TMP DP  RH WIND       PRES   REMARKS
JACKSON        CLEAR     54  51  90 S3        29.88S
LONDON         PTCLDY    53  50  89 CALM      29.88S FOG
SOMERSET       PTCLDY    54  54 100 S3        29.88S
MIDDLESBORO    FOG       47  47 100 CALM      29.91F VSB<1/4
MONTICELLO     NOT AVBL
$$





USA.gov is the U.S. government's official web portal to all federal, state and local government web resources and services.